User: anonymous   Login
Location: Banios
(43.0451°N, 0.2335°E)
Time: 02:57:48
(UTC+00:00)
Language:

A-11 Canister half - Orbit

View from above orbital plane
View from above orbital plane
View from above satellite
View from above satellite

Ground track
Ground track

The orbit data is extracted from the following two-line orbital elements,

1 00053U 60009E   21209.06594503 -.00000022  00000-0  61616-3 0  9997
2 00053  47.2773  88.1355 0097022 199.8096 159.8911 12.17256194717975
Epoch (UTC): 28 July 2021 01:34:57
Eccentricity: 0.0097022
inclination: 47.2773°
perigee height: 1527 km
apogee height: 1682 km
right ascension of ascending node: 88.1355°
argument of perigee: 199.8096°
revolutions per day: 12.17256194
mean anomaly at epoch: 159.8911°
orbit number at epoch: 71797

The dashed part of the orbit path shows where the satellite is in the earth's shadow,  

DLR